This is the latest recevied weather packets stored in our database for station/object CE3MXM-13. If no packets are shown the sender has not sent any weather packets the latest 10 day(s).
| Time | Temp. | Humidity | Pressure | Rain* | Wind** | Luminosity | Snow |
|---|---|---|---|---|---|---|---|
| 1777909176 | 18.89° C | 49% | 1012.6 hPa | - | - | - | - |
| 1777908876 | 18.89° C | 50% | 1012.5 hPa | - | - | - | - |
| 1777908575 | 18.89° C | 49% | 1012.5 hPa | - | - | - | - |
| 1777908276 | 18.89° C | 51% | 1012.5 hPa | - | - | - | - |
| 1777907975 | 18.89° C | 47% | 1012.5 hPa | - | - | - | - |
| 1777907675 | 18.89° C | 49% | 1012.3 hPa | - | - | - | - |
| 1777907375 | 18.89° C | 48% | 1012.5 hPa | - | - | - | - |
| 1777907075 | 18.33° C | 48% | 1012.5 hPa | - | - | - | - |
| 1777906775 | 18.89° C | 51% | 1012.5 hPa | - | - | - | - |
| 1777906475 | 18.33° C | 49% | 1012.4 hPa | - | - | - | - |
| 1777906175 | 18.33° C | 51% | 1012.4 hPa | - | - | - | - |
| 1777905875 | 18.33° C | 52% | 1012.3 hPa | - | - | - | - |
| 1777905574 | 18.33° C | 53% | 1012.4 hPa | - | - | - | - |
| 1777905274 | 18.33° C | 51% | 1012.4 hPa | - | - | - | - |
| 1777904974 | 18.33° C | 52% | 1012.1 hPa | - | - | - | - |
| 1777904674 | 17.78° C | 53% | 1012.3 hPa | - | - | - | - |
| 1777904374 | 17.78° C | 52% | 1012.2 hPa | - | - | - | - |
| 1777904074 | 17.22° C | 54% | 1012.2 hPa | - | - | - | - |
| 1777903774 | 17.22° C | 58% | 1012.3 hPa | - | - | - | - |
| 1777903474 | 16.67° C | 58% | 1012.3 hPa | - | - | - | - |
| 1777903174 | 16.11° C | 59% | 1012.3 hPa | - | - | - | - |
| 1777902874 | 15.56° C | 59% | 1012.3 hPa | - | - | - | - |
| 1777902574 | 15° C | 63% | 1012.2 hPa | - | - | - | - |
| 1777902273 | 15° C | 66% | 1012.5 hPa | - | - | - | - |
| 1777901973 | 14.44° C | 71% | 1012.2 hPa | - | - | - | - |
* Rain since midnight (hover to see other rain measurements)
** Current wind speed in m/s (hover to see current wind gust speed)